Location: Eppenbrunn
(49.1158°N, 7.5601°E)
Time: 23:37:22
(UTC+00:00)

IRIDIUM 114 - Pass Details

Date: 09 April 2020
Orbit: 776 x 779 km, 86.4° (Epoch: 03 June)

Event Time Altitude Azimuth Distance (km) Brightness Sun altitude
Rises 18:46:48 0° 355° (N) 3,277 7.9 -6.0°
Reaches altitude 10° 18:49:09 10° 355° (N) 2,344 7.2 -6.4°
Maximum altitude 18:54:25 83° 268° (W) 792 4.5 -7.2°
Drops below altitude 10° 18:59:37 10° 181° (S) 2,325 6.6 -8.0°
Sets 19:01:57 0° 181° (S) 3,248 7.3 -8.4°
